sat.trackr.live / text

‹ back to catalog

COSMOS 2498 (RODNIK-S *)

NORAD 39763 · 2014-028C

PAYLOAD ACTIVE UNKNOWN

§ Identity

Operator
Country
CIS
Launch date
2014-05-23
Launch site
PLMSC
Launch vehicle
Mass (kg)
RCS (m²)
1.76

External: N2YO · Heavens-Above · Gunter

§ Orbital elements

Epoch: 2026-05-25T04:43:29.508384Z

Period
115.85 min
Inclination
82.4438°
Eccentricity
0.0022253
Mean motion
12.42979453 rev/d
Perigee alt
1,476.5 km
Apogee alt
1,511.5 km
Semi-major
7,872.1 km
B*
4.0365e-4
RAAN
123.3091°
Arg perigee
121.5656°
Mean anomaly
238.7600°
Rev number
54,469

§ Raw data

COSMOS 2498 (RODNIK-S *)1 39763U 14028C   26145.19686931  .00000066  00000+0  40365-3 0  99962 39763  82.4438 123.3091 0022253 121.5656 238.7600 12.42979453544698

JSON: /api/v1/satellites/39763 · /tle

For live sub-satellite position, see the globe view (requires WebGL).

§ Visibility from observer

Set your observer location to see the next 7 days of passes ≥ 10°. The values pass through the URL so the page stays shareable.

No JS? Fill the form by hand. The geolocation button needs JavaScript.

§ Radio — SatNOGS DB

ModeDescriptionDownlinkUplink
FM UHF Unknown 388.687 MHz
FM UHF Unknown 388.187 MHz

2 transmitters · refreshed weekly from db.satnogs.org